RH
31 30 27 23 21 21 22 23 27 33 36 38 40 41 46 52 60 70 75 77 79 80 78 71 64 56 51 50 52 56 60 65 71 75 77 76 74 70 68 66 65 65 64 62 59 57 53 50 47 45 43 40 37 34 31 29 27 24 22 20 18 18 16 14 11 8 7 7 7 7 7 7 6 7 6 6 6 6 6 6 6 6 6 6 6 6 6 7
37 35 31 25 21 20 19 20 21 24 29 31 33 33 35 36 38 43 47 52 56 60 63 63 59 51 42 36 35 35 36 38 40 44 49 52 54 54 55 55 56 55 54 54 53 52 50 48 46 44 44 43 41 39 36 34 31 30 28 26 23 21 20 17 15 13 11 10 9 8 8 8 8 8 7 8 7 7 7 7 7 7 7 7 7 8 8 8
44 39 35 28 23 21 18 19 18 19 22 26 30 31 32 33 33 34 35 36 37 39 41 45 47 46 41 36 32 29 28 28 28 28 30 31 32 33 34 35 37 38 39 40 41 41 41 40 40 41 42 42 42 40 38 36 35 36 35 35 35 33 32 31 29 28 26 23 21 20 18 17 15 14 13 12 11 10 10 9 9 9 8 8 8 8 8 9
47 42 36 30 25 22 19 18 18 18 20 24 29 34 37 37 36 36 37 37 37 36 35 34 35 37 38 37 36 34 31 30 29 28 29 30 30 30 31 31 31 32 33 34 34 34 35 35 36 38 38 38 38 36 35 34 34 34 34 36 36 36 37 37 37 37 37 36 34 33 32 31 28 27 26 24 23 21 20 18 17 16 15 14 13 12 12 11
43 43 38 32 27 22 19 18 18 20 24 29 34 39 42 42 39 38 38 38 38 36 35 34 31 30 31 33 35 34 34 35 34 32 33 34 35 36 36 37 38 38 40 41 40 39 38 37 37 38 38 38 36 35 35 35 34 34 34 35 35 35 37 37 38 39 39 38 37 37 37 36 35 35 34 34 32 31 30 28 27 26 24 23 22 21 20 18
37 40 40 34 28 22 19 18 19 23 30 36 40 39 37 33 30 30 32 32 32 31 30 30 27 26 26 27 28 28 32 37 36 34 35 36 36 36 37 38 38 39 39 38 38 37 35 33 32 33 33 32 31 31 32 32 32 33 33 34 34 33 34 35 35 36 36 36 36 36 37 37 38 38 38 37 36 35 34 33 33 32 31 30 29 29 28 27
38 39 42 37 30 24 20 19 22 28 35 40 38 34 30 26 21 20 22 23 24 24 25 25 23 24 24 24 25 27 29 31 32 31 31 32 33 34 35 35 36 38 38 39 40 40 40 40 40 40 39 39 40 39 40 40 40 41 42 42 42 41 41 41 41 42 41 41 42 42 43 43 43 43 42 42 41 40 39 39 38 37 37 36 35 34 33 32
43 37 40 39 33 26 20 20 25 32 38 41 35 31 32 30 24 21 19 20 21 21 22 22 23 24 25 26 27 28 29 30 33 33 34 35 37 39 40 42 44 46 48 50 51 49 49 49 48 46 46 47 48 47 45 44 45 47 49 48 48 48 48 51 51 52 52 52 53 53 53 53 53 52 50 49 48 46 45 44 43 42 42 40 40 39 38 37
43 36 37 38 33 25 19 20 27 36 41 42 34 32 36 34 31 28 26 26 25 25 25 25 26 27 28 30 31 33 35 38 39 39 41 41 43 45 46 47 45 45 43 41 40 37 37 36 34 32 32 34 35 36 33 31 33 36 37 37 39 39 41 45 47 51 55 57 57 57 57 57 57 56 56 54 52 51 51 49 48 47 46 45 44 42 41 39
44 37 35 37 34 26 19 21 30 38 43 42 36 35 38 36 33 32 31 31 30 30 31 31 32 32 33 35 37 39 40 41 43 42 42 42 42 41 38 34 31 29 27 25 25 24 24 23 22 22 21 22 25 27 26 24 25 27 28 30 31 31 34 38 41 46 50 53 55 54 55 56 57 58 58 58 58 59 58 58 58 57 56 56 56 54 54 55
46 39 36 37 34 25 18 22 33 41 43 41 37 38 40 37 34 33 32 32 32 32 32 33 34 35 36 37 39 42 41 41 40 37 34 32 29 27 24 23 22 23 23 23 23 23 23 23 23 22 21 21 23 23 23 23 23 23 26 27 26 28 31 34 37 41 45 51 53 52 53 54 57 60 62 64 66 68 69 70 72 72 74 76 77 78 78 78
50 41 37 36 30 20 16 25 37 43 43 40 39 40 39 36 33 33 33 33 34 35 34 34 33 33 33 32 32 33 31 29 27 24 21 20 20 21 22 23 25 25 25 25 25 25 24 23 21 19 17 17 16 15 16 17 17 16 17 19 19 21 24 26 30 34 39 44 44 44 46 46 49 53 56 57 57 58 58 59 59 59 60 61 62 62 61 58
53 41 37 34 25 16 19 32 41 42 41 41 41 39 36 33 31 31 33 34 34 33 31 28 25 23 22 22 22 20 19 18 17 17 17 18 20 21 22 24 25 25 25 25 24 22 20 18 15 12 10 9 9 8 9 10 10 9 11 12 12 14 16 18 21 24 27 28 28 28 30 30 31 33 33 33 33 32 32 31 31 31 31 31 31 31 30 29
53 41 35 28 19 17 27 38 41 41 41 41 38 34 31 30 31 32 33 31 28 24 20 17 15 15 16 17 17 16 17 17 17 18 19 21 21 22 23 24 23 23 22 20 17 14 11 10 8 7 7 7 7 7 7 8 8 9 10 10 10 12 13 14 15 16 17 18 18 18 19 19 19 20 21 21 21 20 20 20 20 21 22 23 23 24 25 25
49 39 31 21 17 24 36 41 43 43 40 36 32 30 31 32 33 31 27 21 18 15 14 14 14 15 17 17 18 18 18 19 20 22 23 23 23 24 23 19 15 13 12 10 9 8 7 7 7 8 8 8 8 8 9 9 9 10 10 10 11 12 13 14 14 14 15 16 16 16 17 17 18 19 19 19 19 20 21 22 22 23 24 25 25 25 25 24
44 36 24 17 24 34 43 45 44 41 35 33 32 33 35 33 28 22 17 15 15 16 16 17 17 18 18 18 19 19 19 21 23 23 22 21 21 21 17 11 8 7 7 7 7 8 8 8 8 8 8 7 7 8 8 8 8 10 10 10 11 12 14 14 14 14 15 16 16 16 17 17 17 18 18 18 19 20 21 22 22 23 22 22 22 21 21 20
39 29 19 23 35 44 47 45 40 35 33 35 36 35 31 24 19 16 16 17 18 18 18 18 18 18 18 18 19 19 21 22 21 17 13 12 12 11 9 7 8 7 7 7 6 7 6 6 6 6 5 5 5 5 5 5 6 7 7 7 8 10 11 12 12 12 12 13 14 14 14 14 14 14 14 15 16 16 17 17 18 18 19 19 18 18 17 15
32 22 23 34 45 49 46 39 34 33 36 37 33 27 21 18 17 17 18 18 18 18 18 18 17 18 19 17 16 16 16 15 12 8 7 7 7 7 7 7 7 6 5 4 4 4 4 4 4 4 4 4 4 4 5 5 5 6 6 6 6 7 8 9 9 9 10 11 11 11 11 11 11 12 13 13 14 15 15 16 16 16 16 15 14 12 10 9
24 23 34 45 50 46 39 33 35 37 36 30 23 20 18 18 17 18 18 17 17 16 15 15 15 19 18 12 10 9 9 7 6 6 6 6 6 6 5 5 4 4 3 3 4 4 4 5 5 6 6 6 6 7 7 7 8 8 8 8 8 8 9 9 9 10 10 10 10 11 11 12 12 13 14 13 14 13 13 13 12 11 10 9 8 7 6 6
22 32 44 51 47 39 35 36 38 34 27 21 19 18 18 16 15 16 15 14 14 10 10 11 12 15 12 7 7 7 7 6 6 5 5 4 4 4 4 4 4 4 5 5 6 6 6 7 7 8 8 8 8 8 8 8 8 8 8 8 8 8 8 9 10 10 10 10 10 10 10 11 11 11 11 10 10 9 9 8 7 7 6 6 6 5 6 5
29 41 50 49 40 36 39 38 32 24 20 19 18 16 13 12 12 12 11 11 9 6 7 8 8 9 8 7 6 6 6 6 5 4 3 4 3 4 4 5 5 6 7 7 7 8 8 9 9 9 9 8 8 8 8 8 8 8 8 7 7 7 7 7 8 8 8 8 9 9 9 9 8 8 8 7 7 6 6 6 5 5 5 5 5 5 6 5
38 48 49 42 37 39 37 28 22 19 19 17 14 11 9 8 7 7 7 7 7 6 7 7 7 7 7 8 6 4 5 4 4 4 4 5 5 6 6 6 7 8 8 8 9 9 9 9 9 8 8 8 8 7 7 7 6 6 6 6 6 6 6 6 7 7 7 7 7 7 7 6 6 6 5 5 5 5 5 5 5 5 5 5 5 5 5 4
46 49 44 39 38 34 25 20 19 18 15 12 10 8 7 6 5 6 6 7 7 7 7 7 6 6 6 6 5 4 5 4 5 5 5 6 6 7 7 8 8 8 9 9 9 9 8 8 8 7 7 6 5 5 5 4 4 4 4 4 5 5 5 5 6 6 6 6 5 5 5 5 5 4 5 4 4 4 4 4 4 4 4 4 4 4 5 5
47 45 41 38 32 23 19 18 16 13 11 8 7 5 5 6 6 8 7 8 8 7 7 6 5 5 5 5 5 5 5 6 6 6 7 8 8 8 8 9 9 9 9 9 8 8 7 7 6 5 4 3 3 3 3 3 3 3 3 4 4 4 4 4 5 4 4 4 4 4 4 4 4 4 4 3 3 4 3 4 4 4 4 5 5 5 5 5
44 42 37 30 22 18 18 14 11 9 7 5 5 5 6 7 8 8 7 7 7 6 6 6 5 5 5 5 6 6 6 7 7 7 8 8 9 9 9 10 9 9 9 8 8 7 6 5 4 3 2 2 2 2 2 2 3 3 3 3 3 3 3 3 3 3 3 3 3 3 3 3 4 3 3 3 3 4 3 4 4 5 5 5 5 5 5 6
42 37 28 21 16 15 13 9 8 6 4 5 6 6 7 7 6 6 5 5 5 5 5 5 5 5 6 6 7 7 7 8 8 9 9 9 10 10 10 10 9 9 8 7 7 5 4 4 3 3 2 2 2 2 2 2 2 3 3 3 3 3 3 3 3 3 3 3 3 3 3 3 3 3 3 3 4 4 4 5 5 5 5 5 6 5 6 6
34 25 18 15 14 12 8 6 6 5 5 6 6 7 6 5 5 4 4 4 5 6 5 5 6 6 7 7 7 8 8 9 9 9 10 10 10 10 10 9 9 8 8 7 6 5 4 3 3 3 2 3 3 2 2 2 2 2 2 3 2 3 3 2 3 3 3 3 3 3 3 3 3 4 4 4 4 5 5 5 5 5 5 5 6 6 6 7
22 17 15 14 11 8 5 5 5 6 7 6 6 6 5 4 5 4 4 5 5 6 6 6 7 7 7 8 8 9 9 10 10 10 11 11 11 10 10 9 9 8 8 7 6 5 5 4 4 3 3 3 3 2 3 2 2 3 2 3 3 3 3 3 3 3 3 3 3 4 4 4 4 4 5 4 5 5 5 6 6 6 6 6 7 7 8 8
16 15 13 10 7 5 5 6 6 7 7 6 6 4 4 5 4 4 5 5 6 7 6 7 7 7 8 8 9 10 10 11 11 11 11 11 11 11 10 10 9 9 8 8 8 7 6 5 4 4 4 4 3 3 3 3 3 3 3 3 3 3 3 3 3 3 4 4 4 4 4 4 5 5 5 5 5 6 6 6 6 7 7 7 9 9 10 11
15 13 9 6 5 5 6 7 7 7 6 5 5 4 4 4 4 5 6 5 6 6 6 7 7 8 9 10 11 11 11 12 12 12 12 12 12 11 11 10 10 10 10 9 9 8 7 7 6 5 5 5 4 4 3 3 3 3 3 3 3 3 4 4 4 4 4 5 5 5 5 6 6 6 6 7 7 7 7 8 8 8 9 10 11 12 13 15
12 8 6 5 6 7 8 8 7 6 5 4 4 4 5 5 5 6 5 6 6 6 6 7 8 9 10 11 12 12 12 12 12 12 12 12 12 12 12 11 11 11 11 11 11 10 9 9 8 7 7 6 5 4 4 4 4 4 4 4 4 4 4 4 5 5 6 6 6 6 6 7 8 8 8 8 9 9 9 9 9 10 12 12 13 14 17 19
7 5 5 6 7 8 8 7 5 4 4 4 5 5 5 5 6 5 5 5 5 6 7 8 9 10 11 12 12 13 13 13 13 13 13 13 13 13 13 12 13 13 13 13 13 12 12 11 10 9 8 7 6 5 6 5 5 5 5 4 5 5 5 6 6 7 7 7 7 7 8 9 11 10 10 11 11 11 11 12 12 13 14 15 16 17 19 21
5 5 6 7 8 8 6 5 4 4 4 4 5 6 6 6 6 5 5 5 5 8 8 9 10 11 12 12 13 14 14 13 14 13 14 14 14 14 14 14 14 15 15 15 15 14 14 12 12 11 9 9 8 7 7 6 6 7 6 6 6 6 6 7 7 7 8 7 8 8 9 12 13 13 13 13 12 13 14 15 15 16 17 17 18 19 21 21
6 7 8 8 8 6 5 4 4 5 5 5 5 6 6 6 5 5 4 5 7 9 9 10 11 11 12 13 14 14 14 14 14 14 15 15 15 15 15 16 16 16 17 17 16 16 15 13 13 12 10 10 9 8 8 7 7 8 7 7 7 6 7 8 7 8 9 8 8 9 10 13 15 16 17 15 13 14 16 17 18 19 19 20 20 20 21 20
7 8 9 8 6 5 4 4 5 5 5 6 6 6 6 6 5 5 5 7 8 9 10 11 11 12 13 13 14 15 15 15 15 16 16 16 16 16 16 17 18 18 18 18 18 18 16 15 15 13 12 11 10 9 9 8 8 8 8 8 7 7 8 7 8 9 10 9 10 11 13 16 18 18 17 14 13 15 16 18 20 20 20 20 20 20 19 18
9 9 9 6 4 4 4 5 5 5 6 6 6 6 6 5 5 5 7 8 9 10 10 11 12 13 13 14 15 15 16 16 16 17 17 17 17 17 18 19 19 20 21 21 21 20 18 18 17 15 13 12 11 10 9 7 8 8 8 7 7 8 8 8 9 10 10 11 12 14 15 17 18 19 16 13 13 14 15 18 19 19 19 18 18 18 17 17
10 9 8 6 4 5 5 5 6 6 6 6 6 6 5 5 5 6 8 9 10 10 11 12 12 13 14 14 15 16 16 17 17 17 17 18 18 18 19 20 20 22 23 23 23 22 22 22 21 19 16 13 12 12 10 8 8 8 7 8 8 8 8 9 10 10 10 12 14 15 16 16 17 17 14 12 12 12 13 16 17 16 16 16 16 17 16 15
10 9 7 5 5 5 5 6 6 7 7 7 6 6 5 6 6 7 9 9 10 11 11 12 13 13 14 15 16 17 17 17 17 18 17 18 17 17 18 19 20 22 23 23 24 25 26 26 25 23 21 18 16 15 13 10 10 9 8 8 8 8 8 8 8 9 11 12 14 15 15 14 13 13 12 12 12 12 13 14 14 14 14 15 14 14 15 14
9 7 6 5 5 5 6 6 7 8 7 6 6 6 6 7 7 9 9 10 11 11 12 13 14 15 16 16 17 17 17 17 17 17 16 16 16 16 17 17 18 19 20 21 23 24 26 28 28 27 27 26 24 22 18 13 12 11 10 10 8 9 9 8 9 10 10 11 12 15 16 13 12 13 14 14 12 13 14 13 13 13 13 13 14 14 13 13
7 6 5 5 5 6 6 7 8 8 7 6 6 6 7 7 8 9 10 11 12 12 13 14 15 16 16 16 17 17 16 16 16 15 15 15 15 15 15 16 17 18 18 19 21 22 24 27 28 29 31 32 31 30 26 22 20 18 17 15 12 12 11 10 12 10 9 10 12 17 18 13 12 16 18 18 16 15 13 12 13 13 13 14 14 13 15 20
7 6 6 6 6 6 7 8 8 8 7 7 7 7 8 8 9 10 11 12 13 13 15 15 16 17 16 16 16 16 15 16 15 15 15 15 15 15 15 16 16 17 18 18 19 20 21 24 25 28 31 33 35 35 33 32 31 30 29 27 24 22 18 18 21 19 20 23 25 30 25 13 16 29 35 36 36 32 26 20 17 16 17 18 18 22 31 43
6 6 6 6 7 7 8 8 8 8 7 7 8 8 9 10 11 11 12 13 14 14 16 16 16 16 16 16 16 16 16 16 17 17 17 17 17 17 17 17 17 18 18 18 19 19 20 21 22 23 27 31 35 37 36 36 36 36 38 38 39 38 35 37 39 38 41 37 36 42 30 13 25 45 51 52 54 54 48 40 35 33 33 35 39 46 55 62
6 7 7 7 8 9 9 9 8 8 8 8 9 10 10 11 12 13 13 14 14 15 16 16 16 16 16 17 17 17 17 17 18 19 19 21 21 21 22 22 21 21 20 20 21 20 20 21 20 19 22 27 31 33 34 34 34 36 40 43 45 46 47 48 47 47 44 36 40 48 30 16 35 50 49 54 61 64 62 57 53 53 54 57 61 64 67 69
7 7 8 9 9 9 9 9 9 8 9 10 10 11 12 12 13 13 14 15 15 16 17 17 17 17 18 18 18 18 18 18 19 19 19 21 22 23 25 27 27 28 28 27 26 25 25 24 23 21 22 24 26 29 31 29 29 32 38 42 44 46 49 47 45 43 37 35 47 50 30 24 41 47 47 60 66 61 61 62 61 63 65 67 68 69 72 76
8 8 9 10 9 10 10 9 9 9 10 11 11 12 12 13 14 14 15 15 15 16 17 17 18 18 19 19 20 20 20 20 20 20 20 20 20 21 22 25 27 28 32 34 34 34 34 33 31 28 27 26 25 27 27 25 27 30 35 38 41 46 48 46 44 39 36 41 46 43 34 29 33 44 59 72 70 61 61 66 68 68 68 68 69 71 74 80
9 10 10 10 10 11 10 9 10 10 10 12 12 12 13 14 15 15 16 17 17 18 19 19 19 20 21 21 22 22 22 23 23 23 23 23 22 22 21 21 22 23 25 29 33 35 39 43 42 38 37 34 30 29 27 26 30 32 35 39 43 46 47 46 43 37 42 48 40 39 50 40 26 45 69 73 70 68 68 70 70 70 69 70 72 74 77 83
10 11 11 11 11 11 10 10 11 11 11 12 13 13 14 15 16 17 18 19 20 20 21 22 22 23 24 24 25 26 26 26 26 26 26 27 27 27 26 24 23 22 22 22 25 26 31 40 44 44 46 45 39 37 38 36 37 38 39 42 46 48 47 44 42 42 50 54 41 45 65 55 38 55 72 69 69 72 73 75 76 76 77 78 79 81 84 87
11 12 12 12 12 11 11 11 11 12 13 14 14 16 17 18 19 20 21 22 23 23 24 25 25 26 26 27 28 29 29 29 30 29 30 30 30 31 31 30 29 29 27 25 24 22 22 28 32 35 43 51 51 48 48 48 47 45 45 46 48 49 47 44 45 48 56 59 55 59 68 62 57 67 71 71 76 78 77 81 82 83 85 86 87 90 91 89
12 12 12 13 12 11 11 12 13 14 15 16 17 18 20 21 22 23 24 25 26 26 26 27 28 29 29 30 30 31 32 32 33 33 32 33 34 34 34 35 34 34 34 32 31 29 26 25 24 22 28 44 55 56 55 55 54 52 51 50 50 50 49 47 47 52 58 63 67 70 63 55 63 74 74 76 84 85 83 84 85 86 88 90 93 95 91 87
13 13 13 13 12 12 13 13 15 16 17 19 20 21 23 24 25 25 27 28 28 29 30 30 31 31 32 33 33 34 34 35 35 35 35 36 36 37 37 38 38 38 39 38 36 36 34 31 29 25 22 30 41 48 53 55 56 58 57 54 54 53 51 50 51 55 61 65 70 72 60 50 61 77 79 81 85 85 84 85 85 88 94 97 96 92 87 87
14 13 13 13 13 14 15 16 18 19 21 22 23 24 26 27 28 28 30 31 31 32 33 33 34 34 35 36 36 36 37 37 38 38 38 38 39 39 39 40 41 41 42 42 41 41 40 37 35 33 29 26 27 30 36 41 49 61 65 60 60 59 54 53 55 57 62 65 68 67 58 54 66 77 79 82 85 83 82 84 86 91 99 101 94 86 86 90
14 13 13 14 15 16 17 20 21 22 24 25 26 27 28 29 30 31 33 34 35 35 36 37 37 37 38 39 39 40 40 40 41 41 41 41 41 42 42 42 43 44 45 46 45 44 44 41 39 38 34 31 28 25 25 25 34 54 67 68 66 64 61 60 59 59 62 66 66 61 55 59 70 77 78 80 83 82 82 86 92 97 99 96 90 88 91 95
Wind_Speed
12 13 13 12 11 11 11 11 11 11 11 11 11 11 10 10 10 9 9 9 8 7 6 6 7 6 6 4 3 2 2 2 3 4 5 5 5 5 5 6 7 8 8 9 10 11 11 12 12 12 13 14 15 15 17 18 19 20 20 21 22 24 24 24 24 25 24 24 25 25 26 28 29 30 31 32 33 34 34 35 36 37 38 38 39 39 40 40
12 13 13 11 10 10 10 9 9 9 9 9 9 9 9 9 9 8 7 7 6 5 4 4 4 4 3 2 1 1 2 2 3 4 4 5 5 5 6 7 8 9 10 11 12 13 13 14 14 14 15 16 17 18 20 21 22 22 22 23 24 25 26 26 26 26 26 26 27 27 28 30 31 32 33 34 34 35 36 37 38 38 39 40 40 41 42 42
12 12 12 11 10 9 9 8 8 8 8 8 7 7 7 6 6 6 6 5 4 3 2 1 1 2 1 0 1 2 3 4 5 5 6 7 7 7 8 9 10 11 12 13 14 15 16 17 17 17 18 19 20 21 23 24 24 24 25 25 26 27 28 29 29 29 29 29 29 30 31 32 32 33 34 35 35 36 37 38 38 39 39 40 41 42 43 43
10 11 10 10 9 9 8 7 7 7 7 7 6 6 6 5 4 4 3 3 2 2 2 2 1 1 1 2 3 4 4 6 7 7 8 8 9 9 10 11 12 13 14 15 16 17 18 18 19 19 20 21 22 23 25 25 25 26 27 27 28 29 30 30 31 31 31 31 32 33 33 34 34 34 35 36 36 37 37 38 39 40 40 41 42 42 43 44
9 10 10 9 8 8 7 6 5 5 6 6 5 5 5 5 5 5 4 3 3 3 4 4 3 3 2 3 4 5 6 8 9 9 10 10 10 11 11 13 14 14 15 16 17 17 19 19 20 20 21 22 23 24 25 26 26 27 28 29 30 30 31 31 32 32 33 33 34 35 35 35 35 36 36 37 38 38 39 39 40 41 42 42 43 43 44 45
9 9 10 9 8 7 6 5 5 4 5 5 4 5 5 5 5 5 5 4 4 4 4 4 4 4 4 4 4 5 7 9 9 10 10 10 11 12 12 14 15 16 16 17 17 17 19 19 20 20 21 22 24 25 25 26 27 27 28 29 30 31 32 32 33 34 34 35 35 35 36 36 36 37 37 38 39 39 40 40 41 42 42 43 44 44 45 46
10 9 10 9 9 8 7 6 5 5 5 5 4 4 5 5 5 4 4 4 4 4 4 4 4 4 5 4 5 6 7 8 9 10 10 11 12 12 13 14 15 16 16 17 17 18 19 19 20 21 22 23 23 25 26 26 27 28 28 29 30 31 32 33 33 34 34 35 35 35 36 36 37 37 38 39 39 40 41 41 42 42 43 44 45 46 46 47
10 9 9 10 9 8 7 5 4 5 5 5 4 4 4 5 5 4 4 4 4 4 4 5 5 5 6 6 6 7 8 8 10 10 11 12 13 13 14 15 16 16 17 18 18 19 20 20 22 23 23 23 24 25 26 27 28 28 29 29 30 31 32 32 33 33 34 34 34 35 35 36 37 38 39 39 40 41 41 42 43 43 44 45 46 47 47 48
10 9 10 10 10 8 6 4 3 3 4 4 3 2 3 4 4 5 5 4 5 5 5 6 6 7 7 7 8 9 9 10 11 12 13 14 14 15 16 17 17 17 17 18 18 19 19 20 21 22 23 23 24 25 26 27 27 27 28 29 29 30 31 31 31 32 32 33 33 34 35 36 37 38 39 40 40 41 42 43 43 44 45 46 46 47 48 49
11 10 11 11 11 9 6 4 3 3 4 4 2 1 2 3 3 4 5 5 6 7 7 8 8 9 9 10 10 10 11 12 13 14 15 15 16 16 16 16 16 16 15 15 16 16 17 19 19 20 21 22 22 23 24 25 26 26 27 28 28 29 29 30 30 30 31 32 33 34 35 36 37 38 39 40 41 42 43 43 44 45 45 46 47 47 48 49
11 11 12 12 11 9 6 4 3 4 4 4 3 2 3 4 4 4 5 6 6 7 9 10 11 12 12 13 13 13 14 14 14 15 15 14 14 14 14 14 13 13 14 14 15 16 17 18 18 20 21 21 22 23 24 25 26 27 27 28 29 29 29 29 30 30 31 32 33 34 35 36 37 38 39 40 41 41 42 43 44 45 45 46 47 47 48 48
12 13 13 13 12 8 5 3 4 5 4 4 4 4 4 5 6 6 7 7 8 9 10 11 12 13 14 14 15 14 14 14 13 14 13 12 11 12 12 12 13 14 15 15 16 17 18 19 20 21 22 23 24 25 25 26 27 28 28 29 30 30 30 30 31 31 32 33 34 34 35 36 37 38 38 39 40 41 42 43 44 45 45 46 46 47 47 48
13 14 14 13 11 8 5 4 5 5 4 4 4 5 6 7 8 9 10 10 11 12 12 13 13 13 13 13 13 12 12 11 11 11 12 12 12 12 13 14 15 16 17 18 19 20 21 22 23 24 24 25 26 26 26 27 28 29 29 30 31 31 32 32 32 33 34 35 35 36 37 37 38 39 39 40 41 42 43 44 44 45 45 46 46 47 47 48
15 15 14 13 11 7 5 5 6 5 4 4 5 6 7 8 9 10 12 12 13 13 13 12 11 10 9 9 9 9 9 9 10 10 11 12 13 14 14 16 17 18 19 20 21 22 22 22 23 23 24 24 25 26 27 28 28 29 30 30 31 32 33 33 34 35 35 36 37 38 38 39 39 40 40 41 42 43 44 44 45 45 45 46 47 47 48 49
15 16 15 12 8 6 6 6 6 5 5 6 7 8 9 11 12 12 12 12 11 10 10 9 8 7 6 7 7 8 9 9 10 10 12 13 14 15 16 17 18 19 19 20 20 21 21 21 22 23 24 25 26 27 28 29 29 29 30 31 32 33 34 34 35 36 36 37 38 39 39 40 40 41 42 42 43 44 44 45 45 46 46 47 48 48 49 49
15 15 13 9 6 6 6 6 6 6 7 8 9 10 11 12 12 12 11 10 8 7 7 7 7 7 6 7 8 9 10 10 10 12 13 14 15 16 17 17 17 17 18 18 19 20 21 22 23 24 25 26 27 28 29 30 30 30 31 32 33 34 35 35 36 37 38 38 39 40 40 41 42 42 43 44 44 45 45 46 46 47 47 47 47 48 48 48
15 14 11 7 6 6 6 6 7 7 8 10 11 12 12 11 10 9 8 7 7 7 7 7 7 7 7 8 9 10 11 11 12 14 14 14 15 15 15 16 16 17 19 20 21 22 23 24 25 26 26 27 28 29 30 30 30 31 32 33 34 34 35 36 37 38 38 39 39 40 41 42 43 43 44 44 45 45 46 46 46 46 46 46 46 46 46 46
14 11 8 6 6 6 6 7 8 8 10 11 11 11 10 9 8 7 6 6 6 6 6 7 7 7 7 9 10 11 11 11 12 12 12 12 13 14 15 17 19 20 22 22 23 23 24 24 25 26 26 26 27 27 28 29 29 30 31 32 33 34 34 36 37 38 38 39 40 41 42 42 42 43 43 44 44 45 45 45 45 45 45 44 44 44 44 43
12 8 7 7 6 7 7 8 9 10 10 10 9 8 7 6 6 5 5 5 5 6 7 7 8 8 8 9 10 9 9 9 10 11 12 13 15 16 18 19 20 21 22 22 22 23 23 24 24 25 25 26 26 26 27 28 28 29 29 30 32 33 34 35 36 37 38 39 40 41 42 42 42 43 43 43 44 44 44 44 43 43 42 42 41 40 39 39
9 6 6 7 7 8 9 10 10 11 9 8 6 5 5 5 6 5 5 5 6 7 7 8 8 7 8 8 8 8 9 10 12 14 15 16 18 19 19 20 21 21 21 21 22 22 23 23 23 24 24 25 26 26 27 27 28 29 30 31 32 33 34 35 36 37 38 39 40 41 41 41 41 42 42 42 42 42 41 41 40 39 38 37 37 36 36 36
6 6 6 8 9 9 10 11 10 8 6 5 4 4 5 6 6 6 6 6 7 7 7 6 6 6 6 8 9 11 12 14 15 16 17 18 19 20 20 20 20 20 20 21 21 21 22 22 22 23 24 25 26 27 27 29 30 30 31 32 33 34 35 36 37 38 39 39 39 40 40 40 39 39 39 39 38 38 37 36 35 35 34 34 34 34 34 34
6 6 7 8 9 10 10 9 7 5 4 3 4 5 6 6 7 6 6 5 6 5 5 5 6 7 8 10 12 14 15 15 17 17 18 18 19 19 20 20 20 20 20 20 21 21 22 22 23 24 25 26 27 28 29 30 31 32 33 34 34 35 36 37 37 38 38 38 38 38 38 37 36 35 35 35 34 33 33 32 31 31 31 31 31 31 31 31
7 7 8 9 10 10 8 5 4 3 3 4 5 6 6 7 6 5 4 4 5 5 6 7 9 10 11 12 14 16 16 17 17 17 18 19 19 19 19 19 19 19 19 20 21 22 23 24 25 26 27 28 29 30 31 32 32 33 33 33 34 34 35 35 35 35 34 34 34 34 33 32 32 31 31 31 30 29 29 28 27 27 27 28 28 28 29 30
8 8 9 9 8 6 4 2 2 3 4 5 6 6 5 5 4 4 4 5 6 7 8 9 12 12 12 14 16 17 17 18 18 19 19 20 19 19 18 18 18 19 20 21 22 23 24 25 26 27 28 28 29 30 30 30 30 30 30 30 31 31 31 30 30 30 29 29 29 29 29 28 28 28 28 27 25 25 26 25 25 26 26 27 28 28 29 29
8 9 9 7 5 2 2 2 3 4 5 5 4 4 4 4 5 5 5 6 8 10 10 11 14 14 14 16 17 18 19 19 20 20 20 19 19 18 18 18 19 20 20 22 23 24 25 26 26 27 27 27 27 27 27 27 27 27 26 26 26 26 26 25 25 25 25 25 25 25 26 24 24 26 25 24 23 24 25 25 25 27 27 27 28 28 29 29
8 8 6 3 2 1 1 2 3 4 4 3 3 4 5 5 5 6 7 8 10 12 12 13 15 15 16 18 18 19 20 20 20 20 19 19 18 18 18 19 20 21 21 22 23 24 25 25 25 25 25 25 25 24 24 24 23 23 22 22 22 22 22 22 22 23 23 23 22 22 24 23 20 23 25 24 23 24 26 26 26 27 28 27 28 29 30 30
7 5 2 1 1 2 2 3 3 3 2 3 4 5 5 6 7 8 9 10 12 14 13 14 16 16 18 19 19 20 20 20 20 19 18 18 18 18 19 20 20 21 22 23 24 24 24 24 24 24 23 23 23 23 22 22 21 21 21 21 20 21 21 21 21 22 22 22 21 21 24 25 21 22 26 25 24 25 26 26 27 27 28 28 29 30 31 32
3 2 1 1 2 3 3 3 2 3 3 4 4 5 6 7 8 10 10 10 12 14 14 15 17 18 19 20 21 21 21 20 19 18 18 17 17 18 19 20 21 22 23 23 24 24 24 24 23 23 23 23 22 22 21 21 21 21 21 21 21 21 21 21 22 22 23 22 22 22 24 26 23 21 26 26 25 26 26 27 28 28 29 29 30 31 32 34
2 1 2 2 3 3 2 2 3 4 4 4 5 6 7 8 9 10 11 12 13 14 14 16 17 19 21 21 21 21 20 19 18 17 17 17 18 19 20 21 22 22 23 23 24 24 24 24 24 23 23 23 23 22 22 22 22 22 22 22 22 22 22 23 22 23 24 23 23 25 26 28 25 20 25 28 26 27 28 28 29 30 31 32 33 34 34 36
1 1 2 2 2 1 3 3 4 4 4 4 5 6 7 8 10 11 12 13 14 14 15 17 19 20 20 20 20 20 19 18 18 18 18 18 19 19 20 21 22 23 23 24 24 24 24 24 24 24 24 24 23 23 24 23 23 23 23 23 23 23 24 24 24 24 26 25 25 28 28 31 28 22 25 30 28 28 29 29 31 32 33 34 35 35 35 37
1 2 1 0 2 3 4 4 4 4 4 5 6 7 8 9 10 12 13 14 15 15 17 18 20 20 20 19 19 19 18 17 17 17 18 18 19 20 21 22 22 23 23 24 24 24 24 24 24 24 24 24 24 24 24 23 23 23 24 24 24 25 26 25 26 27 28 27 27 29 30 32 31 26 29 33 32 31 31 31 33 34 35 36 36 36 37 39
1 1 2 4 5 5 4 4 3 4 4 5 6 8 8 9 11 12 13 14 15 16 18 19 20 20 20 19 19 18 17 17 17 17 18 19 20 20 21 22 23 23 24 24 24 24 24 24 24 24 24 24 24 24 24 23 24 24 24 25 26 27 28 27 28 29 29 29 29 30 32 33 31 28 30 34 35 36 35 34 34 35 36 36 37 37 39 42
1 3 5 5 5 4 4 3 4 4 5 5 7 8 10 11 12 13 14 15 16 17 19 20 20 20 20 19 18 18 17 17 17 18 18 19 20 21 21 22 23 24 24 24 24 24 24 23 23 23 24 24 24 24 24 24 24 25 25 26 27 29 30 30 30 31 31 31 31 32 33 34 32 30 32 35 35 37 37 36 36 36 37 36 37 39 42 46
4 5 6 5 5 4 3 3 4 5 5 6 7 9 11 12 13 14 14 15 16 18 19 20 20 20 19 19 18 18 17 17 18 18 19 20 20 21 22 23 23 24 24 24 23 23 23 23 23 23 23 23 23 24 25 25 25 25 26 27 28 29 31 32 32 33 34 34 32 32 33 34 33 32 34 36 35 35 37 38 38 38 37 37 39 42 45 49
6 6 6 5 4 3 3 4 4 5 6 7 8 10 12 13 13 13 14 16 17 18 19 19 20 19 19 19 18 18 18 18 18 19 19 20 21 22 22 23 23 24 24 23 23 23 23 23 23 23 23 23 23 24 25 25 26 26 27 28 29 29 32 34 34 35 37 38 35 33 34 33 33 33 33 35 36 36 39 40 39 39 40 42 43 45 48 51
6 6 5 4 3 3 3 4 5 6 6 8 10 11 12 13 13 14 15 16 17 18 19 19 19 19 19 18 18 18 18 19 19 20 20 20 21 22 22 23 23 23 23 23 23 23 23 23 23 23 23 23 24 24 25 26 26 26 27 28 29 30 32 34 37 37 39 42 40 37 37 35 34 31 28 32 38 40 42 42 39 40 45 48 49 49 51 52
6 5 4 3 3 3 3 4 5 7 7 9 11 12 12 13 14 14 15 16 17 18 18 19 19 19 18 18 19 19 19 20 20 20 21 22 22 23 23 23 24 24 23 23 23 23 23 23 24 24 23 24 24 24 25 26 27 28 28 29 31 32 32 34 38 39 40 45 45 42 42 38 35 31 28 33 40 42 45 46 44 46 49 53 53 54 54 54
5 4 3 3 3 3 4 5 6 7 8 10 11 12 12 13 14 14 15 16 17 17 18 18 18 19 19 19 19 19 20 20 21 21 22 23 23 23 24 24 24 24 24 24 24 24 24 23 24 24 24 24 25 25 26 26 27 28 29 30 32 34 35 35 39 41 43 48 48 47 43 32 29 31 29 31 37 42 47 50 51 53 55 57 58 58 58 56
4 3 3 2 2 3 4 5 5 7 9 10 10 12 13 13 14 14 15 16 17 17 18 18 18 19 19 19 20 21 21 21 22 23 23 23 23 24 24 24 24 25 25 25 24 24 24 23 23 24 25 25 25 26 27 27 28 29 30 31 33 36 39 39 41 42 44 49 50 51 45 25 20 26 24 27 37 43 48 51 53 57 59 60 61 61 61 59
3 3 2 2 2 3 3 4 6 9 10 10 11 12 13 13 13 14 15 16 17 18 18 18 18 19 20 20 21 21 22 22 23 23 23 24 24 24 24 24 25 25 25 25 25 24 24 24 24 24 25 26 26 26 27 27 29 29 30 32 33 37 39 41 44 42 44 49 49 54 50 24 15 27 31 35 44 46 48 52 54 57 58 60 62 63 62 59
3 3 3 2 3 3 2 4 8 10 10 10 11 13 13 13 13 14 15 16 17 18 18 18 18 19 20 21 21 22 22 23 23 24 24 24 24 24 25 25 25 26 25 26 26 25 25 25 25 25 26 27 27 28 29 29 30 31 31 32 33 36 38 42 46 43 44 48 47 55 52 26 24 39 42 43 47 46 48 51 52 54 56 59 61 61 59 58
3 3 2 2 2 3 4 6 8 9 9 10 12 12 12 12 13 14 15 17 17 18 18 18 19 19 20 21 21 22 22 23 23 24 24 25 25 25 26 26 26 26 26 26 26 27 27 26 26 25 26 28 28 29 30 31 33 33 33 33 33 36 38 41 46 45 47 48 46 54 53 35 38 49 46 45 48 47 48 49 50 54 56 58 58 57 57 58
3 2 1 1 2 4 5 6 7 8 9 10 11 11 12 12 13 15 16 17 18 18 18 18 19 19 20 21 22 22 23 23 24 25 25 26 26 26 27 27 27 27 27 26 26 27 28 28 28 26 25 26 27 29 31 33 34 34 33 34 35 37 38 41 46 48 50 49 46 53 57 46 46 49 47 48 50 49 49 51 52 55 55 55 55 55 56 57
2 1 1 1 3 5 6 6 7 8 10 10 10 11 12 13 14 15 16 17 17 18 18 18 19 20 21 22 23 24 24 24 25 26 27 27 27 28 28 28 28 28 28 27 27 28 28 28 30 29 27 25 26 28 31 33 34 34 33 34 36 37 40 43 46 49 52 50 47 54 59 52 48 48 47 47 49 51 52 52 53 53 53 53 55 55 57 58
1 1 1 2 4 5 5 7 8 9 9 9 10 11 12 13 14 15 16 16 18 18 18 19 20 21 22 23 24 25 25 26 26 27 28 28 28 29 29 29 29 29 29 28 28 28 28 28 31 32 30 28 28 29 32 34 34 34 33 35 36 38 41 44 47 50 51 52 51 53 56 54 49 47 46 45 49 52 52 52 52 52 53 54 55 57 58 58
0 1 2 3 4 4 6 7 7 8 9 9 10 11 12 13 14 15 16 17 18 19 19 20 21 22 23 24 25 26 27 27 28 28 29 29 29 30 30 30 30 30 30 30 30 29 29 29 30 31 30 29 29 31 34 34 34 34 34 34 36 39 41 43 46 48 49 52 54 50 51 56 51 47 46 48 50 53 52 52 53 53 54 55 56 58 58 58
0 2 3 4 4 5 6 7 7 7 8 9 10 11 12 13 14 15 16 17 18 20 20 21 22 23 25 26 26 27 28 29 29 30 31 31 31 32 32 32 32 32 32 32 32 32 30 29 30 31 29 28 29 31 33 34 34 33 32 32 34 37 41 43 45 45 45 52 55 49 49 55 53 49 50 51 51 52 53 53 54 55 56 57 58 58 58 59
1 2 3 4 4 5 6 6 6 7 8 9 10 11 12 13 14 15 17 18 18 20 21 22 23 24 25 27 27 28 29 30 31 32 32 32 33 33 33 33 33 34 34 34 34 34 33 32 32 32 30 29 30 32 34 35 35 33 30 31 33 36 41 43 42 41 43 50 54 51 51 54 53 50 51 51 51 53 54 54 55 56 56 58 58 58 58 60
0 2 3 3 4 5 5 5 6 7 9 10 11 12 13 14 15 16 17 18 19 20 21 22 23 25 26 27 28 29 30 31 32 33 33 34 34 34 35 35 35 35 36 36 36 37 36 35 35 35 32 29 31 34 35 37 36 33 29 29 33 37 41 42 40 40 43 49 51 52 54 54 51 51 52 51 51 54 54 54 55 55 56 57 57 58 59 60
1 2 3 3 3 4 4 5 6 7 9 10 11 13 13 14 16 16 17 18 19 20 22 23 24 25 26 27 29 30 31 32 32 34 34 35 36 36 36 37 37 37 37 38 38 38 40 39 38 39 37 32 32 35 37 38 38 34 31 30 34 40 42 41 40 40 44 49 50 52 56 54 50 50 53 53 53 54 55 54 54 54 56 57 58 59 59 60
2 2 3 2 3 3 4 5 7 8 10 11 12 13 14 15 17 17 18 19 20 21 22 23 24 25 26 28 29 30 31 32 33 34 35 36 37 38 38 38 39 39 39 40 40 40 42 42 41 42 41 37 36 38 38 39 39 37 35 35 38 43 44 43 41 41 45 49 51 53 56 55 51 51 54 55 55 56 56 55 54 54 56 58 59 59 59 60
2 2 2 2 2 3 4 6 8 9 10 12 13 14 15 16 17 18 19 20 21 22 23 24 25 26 27 28 30 31 31 32 33 34 35 36 37 38 39 39 40 41 41 41 42 42 43 45 44 45 45 42 41 42 41 41 40 38 37 39 43 46 47 46 43 42 45 49 52 55 56 54 53 54 56 56 57 58 57 55 55 56 57 59 59 59 60 60
Wind_Direction
50 51 52 52 51 52 54 53 55 60 63 65 66 67 64 67 78 85 93 102 111 121 134 139 137 129 122 128 140 159 196 224 236 242 240 235 231 231 238 246 251 255 258 262 265 269 270 272 273 273 273 274 275 276 276 276 276 276 277 278 279 280 281 280 278 278 276 273 272 271 271 271 272 272 272 272 272 271 270 270 271 271 272 273 273 273 273 273
50 50 50 51 51 49 51 52 52 55 59 60 58 59 59 56 55 59 63 67 76 87 102 115 119 114 110 129 163 202 225 245 254 253 254 257 260 262 265 266 268 270 272 274 276 278 277 277 278 277 276 275 275 274 274 274 275 276 277 277 277 278 279 278 278 278 278 277 276 274 273 272 272 272 272 272 272 272 273 273 274 275 275 276 276 276 276 276
49 47 47 48 49 46 46 47 47 49 52 53 50 44 43 45 43 41 40 37 36 33 40 72 103 111 114 224 261 266 263 265 266 267 267 270 272 272 272 272 273 274 274 274 275 276 277 277 278 278 278 277 277 277 277 277 279 279 278 277 277 277 277 277 277 276 277 277 276 276 274 274 273 273 274 274 275 276 277 278 278 278 277 277 277 277 277 277
45 44 42 43 44 42 41 40 39 41 42 40 35 26 20 20 17 16 18 10 345 322 315 310 303 285 277 283 286 283 279 276 276 277 277 278 278 276 274 274 273 271 272 272 273 275 276 277 278 278 277 277 277 276 277 278 279 278 277 277 276 275 276 276 276 275 275 274 274 274 274 275 276 276 277 277 278 279 279 279 279 279 278 278 278 278 278 279
36 38 36 36 35 35 35 37 39 39 38 33 21 8 1 355 346 342 334 317 302 297 299 300 300 298 287 283 282 282 281 277 278 278 276 277 276 275 273 272 272 270 269 269 271 273 274 275 276 276 275 275 275 275 276 276 276 276 275 275 275 275 275 275 274 274 274 274 274 275 276 277 278 278 279 279 279 279 278 278 278 279 279 279 280 280 280 279
21 26 27 26 25 24 25 31 38 39 34 27 15 2 355 350 340 327 315 307 301 300 297 294 297 297 292 283 276 275 277 277 279 279 278 279 277 276 276 274 274 274 274 273 273 273 273 275 276 276 275 275 275 275 276 276 276 275 275 275 275 275 274 274 274 275 275 276 277 278 278 279 280 280 280 280 280 280 280 279 280 280 280 281 281 281 281 280
8 10 14 15 13 12 12 16 21 19 14 9 7 6 10 8 354 337 325 321 316 307 299 296 296 296 296 290 283 282 281 279 280 281 282 282 281 282 280 279 279 280 281 281 281 279 279 280 280 279 278 278 278 278 278 277 277 276 275 275 274 274 274 274 275 276 277 278 279 280 280 281 281 281 281 281 281 281 282 282 282 282 281 281 281 281 281 281
355 356 1 4 3 4 4 9 12 5 356 352 357 8 19 13 5 6 2 350 332 315 306 304 302 301 298 294 291 288 284 282 283 284 284 283 283 284 283 283 283 284 284 284 284 283 283 283 282 281 281 280 280 279 279 278 278 278 278 278 278 278 278 278 278 279 280 280 281 281 281 281 281 282 282 283 283 283 283 283 282 282 282 281 281 282 282 282
347 346 350 355 356 358 0 4 5 352 337 332 338 1 10 359 357 4 359 347 332 321 313 306 301 297 294 291 290 287 286 285 286 286 286 286 286 286 285 285 285 284 283 283 282 282 282 281 280 280 281 281 280 280 281 281 282 283 283 283 283 283 283 283 283 283 282 282 282 282 282 282 282 283 283 283 283 283 283 283 283 282 282 282 282 282 283 283
342 339 343 348 349 350 351 351 344 329 319 313 307 318 335 328 335 344 333 323 320 315 309 305 300 296 292 290 287 285 285 285 285 286 285 286 287 287 287 286 286 285 284 283 282 281 281 281 282 283 283 284 284 284 285 286 287 287 286 285 284 284 285 285 284 284 284 284 283 283 282 282 283 282 283 283 283 283 283 283 283 283 284 284 284 284 285 285
339 337 339 341 341 342 341 335 322 316 312 305 295 296 304 308 317 321 309 304 304 302 300 298 297 295 293 291 288 286 287 286 287 286 285 286 286 286 287 288 289 289 288 287 287 286 286 287 288 289 290 290 289 287 287 288 288 287 286 286 285 286 285 285 285 285 285 284 283 282 282 282 282 282 283 283 283 283 283 284 284 284 285 285 285 286 285 285
335 334 334 334 334 335 333 322 311 309 310 301 296 300 302 308 315 314 307 304 300 296 294 293 292 292 291 289 288 288 288 288 289 289 290 290 288 289 291 293 294 293 293 293 293 293 293 293 293 294 294 293 291 290 290 289 289 289 289 288 289 289 289 289 288 287 285 284 283 283 283 283 283 283 283 283 283 283 283 284 284 284 285 285 285 285 285 285
333 330 328 329 330 331 327 314 306 306 306 299 298 304 307 310 313 312 310 309 306 303 299 297 295 293 291 289 289 290 290 289 289 289 291 293 293 293 295 296 296 296 297 296 295 295 294 294 295 294 294 293 293 293 292 292 291 291 291 291 292 292 291 291 289 288 287 286 286 286 285 285 285 285 284 284 284 284 284 285 285 285 285 286 286 285 285 285
328 325 325 326 327 326 319 311 309 309 307 303 305 308 311 312 312 311 310 308 306 305 303 302 301 299 297 293 291 291 289 288 287 287 289 291 293 293 295 296 296 296 294 293 293 292 292 293 293 293 293 293 294 293 293 292 292 292 292 292 292 292 291 290 288 288 288 288 288 288 287 287 287 286 286 285 285 285 285 286 286 286 286 286 286 286 286 286
322 321 321 323 322 317 311 309 310 310 310 312 314 314 314 314 313 312 310 309 307 305 305 305 307 306 300 296 295 293 290 288 287 287 288 289 291 292 293 293 292 291 290 290 291 292 292 293 293 293 293 293 293 292 292 291 292 292 292 292 291 290 289 289 288 288 288 288 288 288 288 287 287 286 286 285 286 286 286 286 287 287 286 286 286 286 287 287
317 316 317 316 312 306 305 307 309 312 314 315 315 314 314 314 313 312 311 310 310 309 309 310 310 306 299 298 298 295 293 290 289 290 291 292 292 291 291 292 292 293 293 293 294 294 294 293 293 293 293 293 293 292 292 292 293 292 291 290 290 289 289 288 288 288 288 288 288 287 287 286 286 286 286 286 287 287 287 287 286 286 286 286 287 288 288 289
312 312 311 307 303 302 303 305 309 310 311 311 311 312 313 313 312 312 312 312 313 313 312 311 308 305 301 301 301 297 293 292 294 295 295 295 293 292 294 297 299 298 297 297 296 295 294 294 294 294 295 294 294 294 293 293 293 291 290 290 290 289 289 288 289 289 289 288 288 288 287 287 287 287 288 288 287 287 287 286 287 287 288 289 289 290 291 291
309 309 304 300 299 300 302 303 304 305 307 308 309 311 312 313 314 313 314 314 314 313 312 309 305 303 302 304 304 300 296 296 298 299 299 298 296 297 299 301 302 301 299 299 298 298 298 298 298 299 298 297 296 295 295 294 294 292 292 292 291 290 290 290 289 289 289 289 288 288 288 288 288 288 287 287 287 287 287 288 288 289 290 291 291 292 292 292
306 304 296 296 299 301 301 301 303 305 308 310 311 314 315 318 321 319 320 318 315 314 311 308 304 301 304 307 308 306 305 306 307 306 305 302 300 301 303 304 303 302 302 302 302 303 302 303 303 302 301 300 299 298 296 295 295 294 293 293 292 292 291 290 289 289 288 287 287 287 287 287 287 287 287 287 288 288 289 289 290 291 292 292 292 293 293 294
300 293 288 293 298 299 301 303 307 309 312 314 318 324 327 330 328 324 324 321 316 316 313 312 310 307 313 321 325 323 317 315 315 312 309 307 307 308 309 308 305 304 305 306 306 306 306 306 305 304 303 302 301 300 299 298 297 296 295 294 293 291 290 289 288 287 287 286 286 286 286 287 287 287 288 288 288 289 290 291 292 292 293 293 294 294 295 297
285 276 281 290 295 298 303 307 310 312 317 325 334 337 336 336 330 325 325 322 322 327 331 334 334 330 330 333 333 328 320 317 316 315 314 313 313 312 310 307 306 308 309 309 310 309 309 308 307 306 305 304 303 302 301 300 299 297 295 294 292 291 289 288 287 287 287 287 287 287 287 288 288 288 288 288 289 290 291 292 293 293 294 294 295 297 298 299
266 268 280 289 295 301 305 309 310 315 329 338 340 336 335 334 328 325 329 334 345 356 3 1 354 345 334 330 328 324 321 319 318 318 317 314 313 311 309 309 311 313 314 314 313 312 312 311 310 309 307 306 305 304 302 300 298 296 294 293 291 290 289 289 288 288 289 289 288 288 289 290 290 290 290 290 291 293 293 294 294 295 296 297 298 299 299 299
263 272 283 293 300 304 306 307 308 327 340 338 336 335 335 334 333 341 358 11 17 13 6 1 352 339 328 328 328 324 323 323 321 318 316 314 314 313 313 316 317 318 318 317 316 315 315 314 312 311 309 308 305 303 301 299 297 296 294 293 292 291 291 290 290 290 290 290 290 291 292 293 293 292 292 293 295 297 296 297 299 299 300 301 301 300 299 298
267 276 289 298 301 303 302 302 321 337 336 333 336 341 348 356 9 26 30 22 13 0 352 348 344 335 328 329 329 325 325 323 320 319 318 318 317 317 320 321 321 321 321 320 319 319 317 316 314 312 310 308 305 304 302 300 299 298 297 295 294 292 291 291 291 291 292 292 294 295 295 296 296 295 295 297 301 300 300 303 304 303 303 302 301 299 299 299
271 284 294 297 296 294 287 311 333 332 332 339 356 18 36 47 47 39 23 8 1 353 345 339 338 336 332 331 329 326 325 322 321 322 321 320 320 322 324 323 323 323 323 322 322 320 318 317 315 314 313 311 310 309 308 307 305 302 299 296 294 293 294 295 296 296 297 298 300 300 300 300 300 300 302 305 307 304 305 309 306 304 304 302 301 300 300 301
280 289 292 284 277 278 288 322 333 330 342 12 50 60 58 50 35 20 8 359 354 350 343 338 338 337 334 332 330 327 325 324 324 323 322 322 324 325 324 323 324 324 325 324 323 321 320 319 319 318 318 319 319 317 316 313 308 304 302 301 301 303 304 305 304 305 306 307 308 307 305 307 309 307 309 313 312 310 311 312 308 306 307 305 303 302 302 303
282 281 271 263 285 301 314 334 341 353 32 67 70 57 43 30 19 10 2 355 350 346 342 339 338 337 334 332 331 329 327 327 326 324 323 324 324 323 324 326 327 327 328 327 325 324 323 323 323 324 325 326 325 323 321 317 313 312 313 314 315 315 314 313 313 314 314 315 314 312 310 315 320 314 313 318 317 313 314 313 310 308 308 307 305 304 304 305
256 235 255 290 301 312 333 355 25 63 76 74 57 38 24 14 8 3 357 352 347 342 341 339 337 336 335 333 331 331 329 327 324 323 323 322 324 326 328 329 329 329 329 328 327 326 326 327 327 329 330 331 330 328 327 324 324 326 326 325 324 322 320 319 320 319 318 320 317 316 316 320 327 321 314 319 320 315 314 313 310 308 308 308 307 306 306 306
182 222 280 294 306 325 8 45 70 78 72 58 38 21 12 4 1 358 351 348 345 342 341 339 338 337 335 333 332 330 328 325 323 324 325 325 329 331 331 331 330 331 330 329 328 328 329 330 331 332 334 334 334 333 334 334 334 334 332 330 328 326 326 324 324 320 320 324 321 321 322 322 330 330 316 318 321 315 313 311 310 308 307 308 307 307 307 307
180 262 287 297 318 39 75 78 77 66 52 37 21 12 6 1 356 351 347 345 343 341 341 338 337 336 334 332 331 329 327 326 327 328 328 330 332 332 332 332 332 332 331 330 331 332 333 333 333 335 336 337 337 337 339 340 339 337 334 334 331 330 329 326 325 322 323 327 324 324 324 321 329 334 319 318 320 314 311 311 309 308 307 307 306 306 306 307
235 272 278 179 102 100 96 85 70 51 37 26 16 9 1 357 351 346 345 344 341 340 340 337 335 334 333 332 331 329 330 329 329 329 330 332 333 332 332 332 332 332 331 332 334 335 335 335 336 337 337 338 338 340 342 341 339 338 335 334 332 329 328 326 325 323 323 326 324 323 323 320 327 333 322 318 318 313 311 309 307 307 307 306 305 306 306 306
244 219 136 121 112 107 96 81 63 42 31 21 16 9 358 351 347 344 343 342 341 340 339 336 335 335 334 334 333 333 333 332 331 331 332 332 333 333 333 332 332 332 333 335 336 337 336 337 338 338 339 339 340 341 341 339 339 337 334 333 331 328 325 325 324 322 322 323 321 321 320 320 327 331 322 317 315 312 311 309 307 307 306 305 304 305 305 305
165 137 124 119 111 101 85 72 55 39 27 16 9 2 355 347 343 343 342 341 341 340 338 337 337 337 337 337 337 337 336 335 334 334 333 333 333 333 332 332 332 333 335 335 336 338 337 338 339 339 340 339 339 340 339 338 336 335 333 331 329 326 323 323 322 320 320 318 317 319 318 319 327 327 319 314 311 309 309 308 308 307 306 304 304 304 304 305
136 127 121 114 101 84 71 61 48 36 22 12 1 351 350 347 342 341 342 342 342 340 340 339 340 340 340 341 341 340 339 337 337 335 334 334 333 333 333 333 333 334 335 335 337 338 338 339 340 339 339 339 338 339 338 336 333 333 332 328 328 325 321 321 319 318 317 314 314 316 314 319 324 321 318 314 308 306 307 307 307 307 306 304 303 304 304 305
127 122 116 103 85 71 62 51 39 28 13 2 352 344 345 344 341 342 344 343 342 341 343 343 344 344 344 345 344 343 342 340 340 338 336 336 336 335 335 334 335 336 336 337 338 337 337 339 339 337 338 337 337 336 335 333 331 331 330 326 326 323 320 318 316 316 314 310 312 313 312 317 318 316 319 313 307 308 307 305 306 306 306 304 303 303 303 304
124 120 111 89 72 62 50 41 30 18 0 349 346 342 341 341 343 346 345 344 343 344 346 347 348 348 348 349 348 347 347 345 344 343 341 341 339 338 338 337 338 338 338 339 338 338 338 339 337 336 336 335 334 333 331 330 327 327 326 324 322 319 317 316 313 314 312 309 311 312 311 313 311 314 322 312 307 311 307 304 304 302 303 303 302 302 303 304
128 120 102 78 64 49 41 34 24 12 352 342 343 339 340 344 347 347 345 344 345 347 349 350 351 351 352 353 352 352 351 349 347 345 344 343 342 341 341 340 340 340 341 341 340 339 339 340 337 334 334 333 331 329 327 325 323 323 323 321 318 315 314 313 311 312 311 309 311 312 314 319 316 316 319 310 308 310 307 305 304 301 301 301 301 302 303 305
130 118 97 74 56 43 34 22 15 4 346 342 341 339 344 350 349 347 345 345 347 349 351 352 353 354 355 356 355 354 352 350 348 346 345 344 344 344 343 342 343 343 343 342 341 340 339 341 338 333 333 331 328 327 325 322 321 319 319 318 316 313 313 312 310 311 312 311 312 315 322 336 340 331 323 313 311 308 306 307 306 303 302 301 302 302 304 306
127 119 94 69 53 41 23 6 2 357 347 343 342 344 351 352 349 347 347 348 350 352 353 354 355 357 357 356 355 353 352 350 349 347 346 346 346 346 344 345 345 344 344 343 342 341 340 341 338 333 331 329 327 325 323 321 318 317 317 317 315 313 313 312 310 311 311 310 312 315 322 343 0 344 331 315 312 309 306 307 304 303 302 302 303 303 305 308
123 114 86 57 35 27 11 352 356 356 351 345 346 352 355 352 349 349 349 350 352 353 355 356 357 358 357 356 355 355 354 353 352 350 349 348 348 348 347 348 347 346 345 344 343 342 341 340 337 333 330 329 328 325 321 319 317 317 318 317 316 313 312 311 309 310 310 309 310 313 319 338 357 335 328 317 311 308 305 304 302 301 301 301 302 304 307 308
106 86 64 31 359 342 339 353 -0 357 350 348 353 357 356 352 351 351 351 353 355 356 357 357 358 358 359 358 358 359 359 358 356 353 353 353 352 352 351 351 350 349 348 346 344 343 342 339 337 334 331 330 328 323 320 319 317 318 319 319 317 314 313 311 309 311 309 308 311 312 315 339 351 331 327 318 311 309 306 303 302 300 300 301 303 306 308 308
87 71 45 15 340 326 340 0 3 354 349 353 358 359 356 353 354 354 355 357 358 359 359 359 359 360 2 3 3 5 4 2 1 359 358 358 358 358 356 355 355 354 352 350 347 345 344 340 337 337 334 330 326 322 320 318 318 320 322 322 319 315 315 312 309 311 308 308 316 312 309 332 344 328 323 318 313 312 308 303 302 300 301 303 305 307 307 307
72 57 23 3 346 347 356 6 4 354 355 -0 2 -0 357 357 358 358 360 1 2 2 2 2 3 3 5 7 7 8 8 6 4 3 3 2 2 3 1 0 0 359 357 355 352 350 347 342 339 340 338 331 325 321 319 318 319 322 323 322 319 316 315 311 309 310 308 311 319 309 305 325 335 322 319 320 315 311 307 304 304 304 305 307 307 306 307 307
46 345 338 357 2 4 6 9 5 359 1 5 5 3 1 1 2 3 5 7 8 8 7 7 7 7 8 9 9 9 9 8 7 6 5 4 4 4 3 2 2 2 1 359 357 355 352 346 342 344 343 336 328 322 319 319 321 323 322 320 318 316 313 311 309 307 309 315 316 306 307 320 323 318 322 321 313 309 308 308 308 308 309 308 306 306 307 307
355 300 344 10 15 9 0 4 6 3 6 9 8 7 7 7 8 9 11 12 14 14 13 13 12 11 11 10 10 10 9 8 7 6 5 5 4 3 3 2 1 1 1 360 359 358 356 351 347 348 346 340 334 327 323 324 325 324 323 320 318 315 311 310 308 308 313 315 311 309 313 315 316 321 324 318 310 310 311 311 310 309 308 307 306 307 307 307
262 5 25 21 23 8 354 4 10 8 11 15 14 12 13 13 13 15 16 16 18 17 16 16 14 13 12 11 10 9 8 7 7 5 4 3 2 1 1 -0 358 357 358 357 356 357 357 353 350 351 349 341 335 330 328 330 330 327 326 323 318 314 310 308 308 313 318 313 309 316 318 312 316 325 321 315 313 313 313 312 310 309 308 307 306 306 306 307
91 39 29 24 22 5 359 9 17 16 17 18 17 16 17 17 16 17 17 17 18 17 15 15 13 11 11 10 8 8 6 5 5 4 3 2 1 360 358 358 356 354 354 353 352 352 354 352 348 351 352 343 335 332 332 334 335 333 331 326 319 312 309 309 313 319 319 311 311 322 319 313 320 325 318 315 316 314 313 312 310 310 309 307 306 306 306 306
57 32 26 24 17 5 6 15 22 22 20 18 17 15 15 16 15 14 15 15 15 14 12 11 10 8 8 6 5 4 3 3 2 1 1 360 359 358 356 355 355 353 351 350 348 347 348 348 345 346 351 345 335 334 335 335 338 338 334 326 317 310 309 313 320 324 318 312 316 322 318 315 321 322 316 317 317 314 314 313 312 312 311 309 308 308 307 307
51 41 32 24 15 11 11 20 25 23 18 14 13 13 11 12 12 11 11 10 9 9 8 7 6 5 4 3 2 1 -0 360 359 359 358 357 356 355 354 353 352 352 350 348 347 345 344 345 342 341 347 345 333 332 334 334 337 340 336 325 314 310 313 318 325 326 319 316 319 320 317 319 323 319 316 317 316 314 315 315 315 315 313 311 310 309 309 310
338 39 39 20 14 22 22 21 21 19 13 8 8 9 8 8 8 6 6 5 4 3 3 2 1 0 359 359 358 357 357 357 356 356 356 354 353 352 352 351 350 349 349 347 346 344 341 342 341 338 343 344 334 330 331 331 335 338 335 325 314 313 318 322 326 326 320 318 320 318 317 323 325 319 316 317 316 315 315 316 317 317 314 311 310 310 311 311
320 2 42 31 15 26 27 17 13 10 7 3 3 4 4 4 3 1 1 359 358 358 357 356 356 355 354 354 354 353 353 353 353 353 353 352 351 350 349 348 346 346 346 344 344 343 340 340 339 335 338 342 336 330 329 330 333 335 333 324 315 315 320 322 324 325 320 317 318 317 318 324 325 319 317 317 316 316 317 319 320 318 314 311 311 312 313 312
310 344 53 62 24 17 14 7 5 2 359 358 359 360 359 359 357 356 355 353 352 352 351 350 351 350 350 350 349 349 350 350 350 349 349 350 350 348 347 346 344 343 343 341 341 341 339 339 338 334 334 338 336 331 328 330 334 335 330 321 314 315 318 319 322 323 320 317 316 316 320 324 322 319 318 318 318 318 318 320 320 317 313 312 313 314 313 312